owner,sensor,date,latitude,longitude,vertical_datum,sea_water_temperature,qcFlag 
WAVCIS,ioos:station:WAVCIS:CSI15:1,2010-10-01T00:00:00Z,28.8332,-90.8320,10.0,-9999.0,2 
WAVCIS,ioos:station:WAVCIS:CSI15:1,2010-10-01T01:00:00Z,28.8332,-90.8320,10.0,-9999.0,2 
WAVCIS,ioos:station:WAVCIS:CSI15:1,2010-10-01T02:00:00Z,28.8332,-90.8320,10.0,-9999.0,2 
WAVCIS,ioos:station:WAVCIS:CSI15:1,2010-10-01T03:00:00Z,28.8332,-90.8320,10.0,-9999.0,2 
WAVCIS,ioos:station:WAVCIS:CSI15:1,2010-10-01T04:00:00Z,28.8332,-90.8320,10.0,-9999.0,2 
WAVCIS,ioos:station:WAVCIS:CSI15:1,2010-10-01T05:00:00Z,28.8332,-90.8320,10.0,-9999.0,2 
WAVCIS,ioos:station:WAVCIS:CSI15:1,2010-10-01T06:00:00Z,28.8332,-90.8320,10.0,-9999.0,2 
WAVCIS,ioos:station:WAVCIS:CSI15:1,2010-10-01T07:00:00Z,28.8332,-90.8320,10.0,-9999.0,2 
WAVCIS,ioos:station:WAVCIS:CSI15:1,2010-10-01T08:00:00Z,28.8332,-90.8320,10.0,-9999.0,2 
WAVCIS,ioos:station:WAVCIS:CSI15:1,2010-10-01T09:00:00Z,28.8332,-90.8320,10.0,-9999.0,2 
WAVCIS,ioos:station:WAVCIS:CSI15:1,2010-10-01T10:00:00Z,28.8332,-90.8320,10.0,-9999.0,2 
WAVCIS,ioos:station:WAVCIS:CSI15:1,2010-10-01T11:00:00Z,28.8332,-90.8320,10.0,-9999.0,2 
WAVCIS,ioos:station:WAVCIS:CSI15:1,2010-10-01T12:00:00Z,28.8332,-90.8320,10.0,-9999.0,2 
WAVCIS,ioos:station:WAVCIS:CSI15:1,2010-10-01T13:00:00Z,28.8332,-90.8320,10.0,-9999.0,2 
WAVCIS,ioos:station:WAVCIS:CSI15:1,2010-10-01T14:00:00Z,28.8332,-90.8320,10.0,-9999.0,2 
WAVCIS,ioos:station:WAVCIS:CSI15:1,2010-10-01T15:00:00Z,28.8332,-90.8320,10.0,-9999.0,2 
WAVCIS,ioos:station:WAVCIS:CSI15:1,2010-10-01T16:00:00Z,28.8332,-90.8320,10.0,-9999.0,2 
WAVCIS,ioos:station:WAVCIS:CSI15:1,2010-10-01T17:00:00Z,28.8332,-90.8320,10.0,-9999.0,2 
WAVCIS,ioos:station:WAVCIS:CSI15:1,2010-10-01T18:00:00Z,28.8332,-90.8320,10.0,-9999.0,2 
WAVCIS,ioos:station:WAVCIS:CSI15:1,2010-10-01T19:00:00Z,28.8332,-90.8320,10.0,-9999.0,2 
WAVCIS,ioos:station:WAVCIS:CSI15:1,2010-10-01T20:00:00Z,28.8332,-90.8320,10.0,-9999.0,2 
WAVCIS,ioos:station:WAVCIS:CSI15:1,2010-10-01T21:00:00Z,28.8332,-90.8320,10.0,-9999.0,2 
WAVCIS,ioos:station:WAVCIS:CSI15:1,2010-10-01T22:00:00Z,28.8332,-90.8320,10.0,-9999.0,2 
WAVCIS,ioos:station:WAVCIS:CSI15:1,2010-10-01T23:00:00Z,28.8332,-90.8320,10.0,-9999.0,2 
WAVCIS,ioos:station:WAVCIS:CSI15:1,2010-10-02T00:00:00Z,28.8332,-90.8320,10.0,-9999.0,2 
WAVCIS,ioos:station:WAVCIS:CSI15:1,2010-10-02T01:00:00Z,28.8332,-90.8320,10.0,-9999.0,2 
WAVCIS,ioos:station:WAVCIS:CSI15:1,2010-10-02T02:00:00Z,28.8332,-90.8320,10.0,-9999.0,2 
WAVCIS,ioos:station:WAVCIS:CSI15:1,2010-10-02T03:00:00Z,28.8332,-90.8320,10.0,-9999.0,2 
WAVCIS,ioos:station:WAVCIS:CSI15:1,2010-10-02T04:00:00Z,28.8332,-90.8320,10.0,-9999.0,2 
WAVCIS,ioos:station:WAVCIS:CSI15:1,2010-10-02T05:00:00Z,28.8332,-90.8320,10.0,-9999.0,2 
WAVCIS,ioos:station:WAVCIS:CSI15:1,2010-10-02T06:00:00Z,28.8332,-90.8320,10.0,-9999.0,2 
WAVCIS,ioos:station:WAVCIS:CSI15:1,2010-10-02T07:00:00Z,28.8332,-90.8320,10.0,-9999.0,2 
WAVCIS,ioos:station:WAVCIS:CSI15:1,2010-10-02T08:00:00Z,28.8332,-90.8320,10.0,-9999.0,2 
WAVCIS,ioos:station:WAVCIS:CSI15:1,2010-10-02T09:00:00Z,28.8332,-90.8320,10.0,-9999.0,2 
WAVCIS,ioos:station:WAVCIS:CSI15:1,2010-10-02T10:00:00Z,28.8332,-90.8320,10.0,-9999.0,2 
WAVCIS,ioos:station:WAVCIS:CSI15:1,2010-10-02T11:00:00Z,28.8332,-90.8320,10.0,-9999.0,2 
WAVCIS,ioos:station:WAVCIS:CSI15:1,2010-10-02T12:00:00Z,28.8332,-90.8320,10.0,-9999.0,2 
WAVCIS,ioos:station:WAVCIS:CSI15:1,2010-10-02T13:00:00Z,28.8332,-90.8320,10.0,-9999.0,2 
WAVCIS,ioos:station:WAVCIS:CSI15:1,2010-10-02T14:00:00Z,28.8332,-90.8320,10.0,-9999.0,2 
WAVCIS,ioos:station:WAVCIS:CSI15:1,2010-10-02T15:00:00Z,28.8332,-90.8320,10.0,-9999.0,2 
WAVCIS,ioos:station:WAVCIS:CSI15:1,2010-10-02T16:00:00Z,28.8332,-90.8320,10.0,-9999.0,2 
WAVCIS,ioos:station:WAVCIS:CSI15:1,2010-10-02T17:00:00Z,28.8332,-90.8320,10.0,-9999.0,2 
WAVCIS,ioos:station:WAVCIS:CSI15:1,2010-10-02T18:00:00Z,28.8332,-90.8320,10.0,-9999.0,2 
WAVCIS,ioos:station:WAVCIS:CSI15:1,2010-10-02T19:00:00Z,28.8332,-90.8320,10.0,-9999.0,2 
WAVCIS,ioos:station:WAVCIS:CSI15:1,2010-10-02T20:00:00Z,28.8332,-90.8320,10.0,-9999.0,2 
WAVCIS,ioos:station:WAVCIS:CSI15:1,2010-10-02T21:00:00Z,28.8332,-90.8320,10.0,-9999.0,2 
WAVCIS,ioos:station:WAVCIS:CSI15:1,2010-10-02T22:00:00Z,28.8332,-90.8320,10.0,-9999.0,2 
WAVCIS,ioos:station:WAVCIS:CSI15:1,2010-10-02T23:00:00Z,28.8332,-90.8320,10.0,-9999.0,2 
WAVCIS,ioos:station:WAVCIS:CSI15:1,2010-10-03T00:00:00Z,28.8332,-90.8320,10.0,-9999.0,2 
WAVCIS,ioos:station:WAVCIS:CSI15:1,2010-10-03T01:00:00Z,28.8332,-90.8320,10.0,-9999.0,2 
WAVCIS,ioos:station:WAVCIS:CSI15:1,2010-10-03T02:00:00Z,28.8332,-90.8320,10.0,-9999.0,2 
WAVCIS,ioos:station:WAVCIS:CSI15:1,2010-10-03T03:00:00Z,28.8332,-90.8320,10.0,-9999.0,2 
WAVCIS,ioos:station:WAVCIS:CSI15:1,2010-10-03T04:00:00Z,28.8332,-90.8320,10.0,-9999.0,2 
WAVCIS,ioos:station:WAVCIS:CSI15:1,2010-10-03T05:00:00Z,28.8332,-90.8320,10.0,-9999.0,2 
WAVCIS,ioos:station:WAVCIS:CSI15:1,2010-10-03T06:00:00Z,28.8332,-90.8320,10.0,-9999.0,2 
WAVCIS,ioos:station:WAVCIS:CSI15:1,2010-10-03T07:00:00Z,28.8332,-90.8320,10.0,-9999.0,2 
WAVCIS,ioos:station:WAVCIS:CSI15:1,2010-10-03T08:00:00Z,28.8332,-90.8320,10.0,-9999.0,2 
WAVCIS,ioos:station:WAVCIS:CSI15:1,2010-10-03T09:00:00Z,28.8332,-90.8320,10.0,-9999.0,2 
WAVCIS,ioos:station:WAVCIS:CSI15:1,2010-10-03T10:00:00Z,28.8332,-90.8320,10.0,-9999.0,2 
WAVCIS,ioos:station:WAVCIS:CSI15:1,2010-10-03T11:00:00Z,28.8332,-90.8320,10.0,-9999.0,2 
WAVCIS,ioos:station:WAVCIS:CSI15:1,2010-10-03T12:00:00Z,28.8332,-90.8320,10.0,-9999.0,2 
WAVCIS,ioos:station:WAVCIS:CSI15:1,2010-10-03T13:00:00Z,28.8332,-90.8320,10.0,-9999.0,2 
WAVCIS,ioos:station:WAVCIS:CSI15:1,2010-10-03T14:00:00Z,28.8332,-90.8320,10.0,-9999.0,2 
WAVCIS,ioos:station:WAVCIS:CSI15:1,2010-10-03T15:00:00Z,28.8332,-90.8320,10.0,-9999.0,2 
WAVCIS,ioos:station:WAVCIS:CSI15:1,2010-10-03T16:00:00Z,28.8332,-90.8320,10.0,-9999.0,2 
WAVCIS,ioos:station:WAVCIS:CSI15:1,2010-10-03T17:00:00Z,28.8332,-90.8320,10.0,-9999.0,2 
WAVCIS,ioos:station:WAVCIS:CSI15:1,2010-10-03T18:00:00Z,28.8332,-90.8320,10.0,-9999.0,2 
WAVCIS,ioos:station:WAVCIS:CSI15:1,2010-10-03T19:00:00Z,28.8332,-90.8320,10.0,-9999.0,2 
WAVCIS,ioos:station:WAVCIS:CSI15:1,2010-10-03T20:00:00Z,28.8332,-90.8320,10.0,-9999.0,2 
WAVCIS,ioos:station:WAVCIS:CSI15:1,2010-10-03T21:00:00Z,28.8332,-90.8320,10.0,-9999.0,2 
WAVCIS,ioos:station:WAVCIS:CSI15:1,2010-10-03T22:00:00Z,28.8332,-90.8320,10.0,-9999.0,2 
WAVCIS,ioos:station:WAVCIS:CSI15:1,2010-10-03T23:00:00Z,28.8332,-90.8320,10.0,-9999.0,2 
WAVCIS,ioos:station:WAVCIS:CSI15:1,2010-10-04T00:00:00Z,28.8332,-90.8320,10.0,-9999.0,2 
WAVCIS,ioos:station:WAVCIS:CSI15:1,2010-10-04T01:00:00Z,28.8332,-90.8320,10.0,-9999.0,2 
WAVCIS,ioos:station:WAVCIS:CSI15:1,2010-10-04T02:00:00Z,28.8332,-90.8320,10.0,-9999.0,2 
WAVCIS,ioos:station:WAVCIS:CSI15:1,2010-10-04T03:00:00Z,28.8332,-90.8320,10.0,-9999.0,2 
WAVCIS,ioos:station:WAVCIS:CSI15:1,2010-10-04T04:00:00Z,28.8332,-90.8320,10.0,-9999.0,2 
WAVCIS,ioos:station:WAVCIS:CSI15:1,2010-10-04T05:00:00Z,28.8332,-90.8320,10.0,-9999.0,2 
WAVCIS,ioos:station:WAVCIS:CSI15:1,2010-10-04T06:00:00Z,28.8332,-90.8320,10.0,-9999.0,2 
WAVCIS,ioos:station:WAVCIS:CSI15:1,2010-10-04T07:00:00Z,28.8332,-90.8320,10.0,-9999.0,2 
WAVCIS,ioos:station:WAVCIS:CSI15:1,2010-10-04T08:00:00Z,28.8332,-90.8320,10.0,-9999.0,2 
WAVCIS,ioos:station:WAVCIS:CSI15:1,2010-10-04T09:00:00Z,28.8332,-90.8320,10.0,-9999.0,2 
WAVCIS,ioos:station:WAVCIS:CSI15:1,2010-10-04T10:00:00Z,28.8332,-90.8320,10.0,-9999.0,2 
WAVCIS,ioos:station:WAVCIS:CSI15:1,2010-10-04T11:00:00Z,28.8332,-90.8320,10.0,-9999.0,2 
WAVCIS,ioos:station:WAVCIS:CSI15:1,2010-10-04T12:00:00Z,28.8332,-90.8320,10.0,-9999.0,2 
WAVCIS,ioos:station:WAVCIS:CSI15:1,2010-10-04T13:00:00Z,28.8332,-90.8320,10.0,-9999.0,2 
WAVCIS,ioos:station:WAVCIS:CSI15:1,2010-10-04T14:00:00Z,28.8332,-90.8320,10.0,-9999.0,2 
WAVCIS,ioos:station:WAVCIS:CSI15:1,2010-10-04T15:00:00Z,28.8332,-90.8320,10.0,-9999.0,2 
WAVCIS,ioos:station:WAVCIS:CSI15:1,2010-10-04T16:00:00Z,28.8332,-90.8320,10.0,-9999.0,2 
WAVCIS,ioos:station:WAVCIS:CSI15:1,2010-10-04T17:00:00Z,28.8332,-90.8320,10.0,-9999.0,2 
WAVCIS,ioos:station:WAVCIS:CSI15:1,2010-10-04T18:00:00Z,28.8332,-90.8320,10.0,-9999.0,2 
WAVCIS,ioos:station:WAVCIS:CSI15:1,2010-10-04T19:00:00Z,28.8332,-90.8320,10.0,-9999.0,2 
WAVCIS,ioos:station:WAVCIS:CSI15:1,2010-10-04T20:00:00Z,28.8332,-90.8320,10.0,-9999.0,2 
WAVCIS,ioos:station:WAVCIS:CSI15:1,2010-10-04T21:00:00Z,28.8332,-90.8320,10.0,-9999.0,2 
WAVCIS,ioos:station:WAVCIS:CSI15:1,2010-10-04T22:00:00Z,28.8332,-90.8320,10.0,-9999.0,2 
WAVCIS,ioos:station:WAVCIS:CSI15:1,2010-10-04T23:00:00Z,28.8332,-90.8320,10.0,-9999.0,2 
WAVCIS,ioos:station:WAVCIS:CSI15:1,2010-10-05T00:00:00Z,28.8332,-90.8320,10.0,-9999.0,2 
WAVCIS,ioos:station:WAVCIS:CSI15:1,2010-10-05T01:00:00Z,28.8332,-90.8320,10.0,-9999.0,2 
WAVCIS,ioos:station:WAVCIS:CSI15:1,2010-10-05T02:00:00Z,28.8332,-90.8320,10.0,-9999.0,2 
WAVCIS,ioos:station:WAVCIS:CSI15:1,2010-10-05T03:00:00Z,28.8332,-90.8320,10.0,-9999.0,2 
WAVCIS,ioos:station:WAVCIS:CSI15:1,2010-10-05T04:00:00Z,28.8332,-90.8320,10.0,-9999.0,2 
WAVCIS,ioos:station:WAVCIS:CSI15:1,2010-10-05T05:00:00Z,28.8332,-90.8320,10.0,-9999.0,2 
WAVCIS,ioos:station:WAVCIS:CSI15:1,2010-10-05T06:00:00Z,28.8332,-90.8320,10.0,-9999.0,2 
WAVCIS,ioos:station:WAVCIS:CSI15:1,2010-10-05T07:00:00Z,28.8332,-90.8320,10.0,-9999.0,2 
WAVCIS,ioos:station:WAVCIS:CSI15:1,2010-10-05T08:00:00Z,28.8332,-90.8320,10.0,-9999.0,2 
WAVCIS,ioos:station:WAVCIS:CSI15:1,2010-10-05T09:00:00Z,28.8332,-90.8320,10.0,-9999.0,2 
WAVCIS,ioos:station:WAVCIS:CSI15:1,2010-10-05T10:00:00Z,28.8332,-90.8320,10.0,-9999.0,2 
WAVCIS,ioos:station:WAVCIS:CSI15:1,2010-10-05T11:00:00Z,28.8332,-90.8320,10.0,-9999.0,2 
WAVCIS,ioos:station:WAVCIS:CSI15:1,2010-10-05T12:00:00Z,28.8332,-90.8320,10.0,-9999.0,2 
WAVCIS,ioos:station:WAVCIS:CSI15:1,2010-10-05T13:00:00Z,28.8332,-90.8320,10.0,-9999.0,2 
WAVCIS,ioos:station:WAVCIS:CSI15:1,2010-10-05T14:00:00Z,28.8332,-90.8320,10.0,-9999.0,2 
WAVCIS,ioos:station:WAVCIS:CSI15:1,2010-10-05T15:00:00Z,28.8332,-90.8320,10.0,-9999.0,2 
WAVCIS,ioos:station:WAVCIS:CSI15:1,2010-10-05T16:00:00Z,28.8332,-90.8320,10.0,-9999.0,2 
WAVCIS,ioos:station:WAVCIS:CSI15:1,2010-10-05T17:00:00Z,28.8332,-90.8320,10.0,-9999.0,2 
WAVCIS,ioos:station:WAVCIS:CSI15:1,2010-10-05T18:00:00Z,28.8332,-90.8320,10.0,-9999.0,2 
WAVCIS,ioos:station:WAVCIS:CSI15:1,2010-10-05T19:00:00Z,28.8332,-90.8320,10.0,-9999.0,2 
WAVCIS,ioos:station:WAVCIS:CSI15:1,2010-10-05T20:00:00Z,28.8332,-90.8320,10.0,-9999.0,2 
WAVCIS,ioos:station:WAVCIS:CSI15:1,2010-10-05T21:00:00Z,28.8332,-90.8320,10.0,-9999.0,2 
WAVCIS,ioos:station:WAVCIS:CSI15:1,2010-10-05T22:00:00Z,28.8332,-90.8320,10.0,-9999.0,2 
WAVCIS,ioos:station:WAVCIS:CSI15:1,2010-10-05T23:00:00Z,28.8332,-90.8320,10.0,-9999.0,2 
WAVCIS,ioos:station:WAVCIS:CSI15:1,2010-10-06T00:00:00Z,28.8332,-90.8320,10.0,-9999.0,2 
WAVCIS,ioos:station:WAVCIS:CSI15:1,2010-10-06T01:00:00Z,28.8332,-90.8320,10.0,-9999.0,2 
WAVCIS,ioos:station:WAVCIS:CSI15:1,2010-10-06T02:00:00Z,28.8332,-90.8320,10.0,-9999.0,2 
WAVCIS,ioos:station:WAVCIS:CSI15:1,2010-10-06T03:00:00Z,28.8332,-90.8320,10.0,-9999.0,2 
WAVCIS,ioos:station:WAVCIS:CSI15:1,2010-10-06T04:00:00Z,28.8332,-90.8320,10.0,-9999.0,2 
WAVCIS,ioos:station:WAVCIS:CSI15:1,2010-10-06T05:00:00Z,28.8332,-90.8320,10.0,-9999.0,2 
WAVCIS,ioos:station:WAVCIS:CSI15:1,2010-10-06T06:00:00Z,28.8332,-90.8320,10.0,-9999.0,2 
WAVCIS,ioos:station:WAVCIS:CSI15:1,2010-10-06T07:00:00Z,28.8332,-90.8320,10.0,-9999.0,2 
WAVCIS,ioos:station:WAVCIS:CSI15:1,2010-10-06T08:00:00Z,28.8332,-90.8320,10.0,-9999.0,2 
WAVCIS,ioos:station:WAVCIS:CSI15:1,2010-10-06T09:00:00Z,28.8332,-90.8320,10.0,-9999.0,2 
WAVCIS,ioos:station:WAVCIS:CSI15:1,2010-10-06T10:00:00Z,28.8332,-90.8320,10.0,-9999.0,2 
WAVCIS,ioos:station:WAVCIS:CSI15:1,2010-10-06T11:00:00Z,28.8332,-90.8320,10.0,-9999.0,2 
WAVCIS,ioos:station:WAVCIS:CSI15:1,2010-10-06T12:00:00Z,28.8332,-90.8320,10.0,-9999.0,2 
WAVCIS,ioos:station:WAVCIS:CSI15:1,2010-10-06T13:00:00Z,28.8332,-90.8320,10.0,-9999.0,2 
WAVCIS,ioos:station:WAVCIS:CSI15:1,2010-10-06T14:00:00Z,28.8332,-90.8320,10.0,-9999.0,2 
WAVCIS,ioos:station:WAVCIS:CSI15:1,2010-10-06T15:00:00Z,28.8332,-90.8320,10.0,-9999.0,2 
WAVCIS,ioos:station:WAVCIS:CSI15:1,2010-10-06T16:00:00Z,28.8332,-90.8320,10.0,-9999.0,2 
WAVCIS,ioos:station:WAVCIS:CSI15:1,2010-10-06T17:00:00Z,28.8332,-90.8320,10.0,-9999.0,2 
WAVCIS,ioos:station:WAVCIS:CSI15:1,2010-10-06T18:00:00Z,28.8332,-90.8320,10.0,-9999.0,2 
WAVCIS,ioos:station:WAVCIS:CSI15:1,2010-10-06T19:00:00Z,28.8332,-90.8320,10.0,-9999.0,2 
WAVCIS,ioos:station:WAVCIS:CSI15:1,2010-10-06T20:00:00Z,28.8332,-90.8320,10.0,-9999.0,2 
WAVCIS,ioos:station:WAVCIS:CSI15:1,2010-10-06T21:00:00Z,28.8332,-90.8320,10.0,-9999.0,2 
WAVCIS,ioos:station:WAVCIS:CSI15:1,2010-10-06T22:00:00Z,28.8332,-90.8320,10.0,-9999.0,2 
WAVCIS,ioos:station:WAVCIS:CSI15:1,2010-10-06T23:00:00Z,28.8332,-90.8320,10.0,-9999.0,2 
WAVCIS,ioos:station:WAVCIS:CSI15:1,2010-10-07T00:00:00Z,28.8332,-90.8320,10.0,-9999.0,2 
WAVCIS,ioos:station:WAVCIS:CSI15:1,2010-10-07T01:00:00Z,28.8332,-90.8320,10.0,-9999.0,2 
WAVCIS,ioos:station:WAVCIS:CSI15:1,2010-10-07T02:00:00Z,28.8332,-90.8320,10.0,-9999.0,2 
WAVCIS,ioos:station:WAVCIS:CSI15:1,2010-10-07T03:00:00Z,28.8332,-90.8320,10.0,-9999.0,2 
WAVCIS,ioos:station:WAVCIS:CSI15:1,2010-10-07T04:00:00Z,28.8332,-90.8320,10.0,-9999.0,2 
WAVCIS,ioos:station:WAVCIS:CSI15:1,2010-10-07T05:00:00Z,28.8332,-90.8320,10.0,-9999.0,2 
WAVCIS,ioos:station:WAVCIS:CSI15:1,2010-10-07T06:00:00Z,28.8332,-90.8320,10.0,-9999.0,2 
WAVCIS,ioos:station:WAVCIS:CSI15:1,2010-10-07T07:00:00Z,28.8332,-90.8320,10.0,-9999.0,2 
WAVCIS,ioos:station:WAVCIS:CSI15:1,2010-10-07T08:00:00Z,28.8332,-90.8320,10.0,-9999.0,2 
WAVCIS,ioos:station:WAVCIS:CSI15:1,2010-10-07T09:00:00Z,28.8332,-90.8320,10.0,-9999.0,2 
WAVCIS,ioos:station:WAVCIS:CSI15:1,2010-10-07T10:00:00Z,28.8332,-90.8320,10.0,-9999.0,2 
WAVCIS,ioos:station:WAVCIS:CSI15:1,2010-10-07T11:00:00Z,28.8332,-90.8320,10.0,-9999.0,2 
WAVCIS,ioos:station:WAVCIS:CSI15:1,2010-10-07T12:00:00Z,28.8332,-90.8320,10.0,-9999.0,2 
WAVCIS,ioos:station:WAVCIS:CSI15:1,2010-10-07T13:00:00Z,28.8332,-90.8320,10.0,-9999.0,2 
WAVCIS,ioos:station:WAVCIS:CSI15:1,2010-10-07T14:00:00Z,28.8332,-90.8320,10.0,-9999.0,2 
WAVCIS,ioos:station:WAVCIS:CSI15:1,2010-10-07T15:00:00Z,28.8332,-90.8320,10.0,-9999.0,2 
WAVCIS,ioos:station:WAVCIS:CSI15:1,2010-10-07T16:00:00Z,28.8332,-90.8320,10.0,-9999.0,2 
WAVCIS,ioos:station:WAVCIS:CSI15:1,2010-10-07T17:00:00Z,28.8332,-90.8320,10.0,-9999.0,2 
WAVCIS,ioos:station:WAVCIS:CSI15:1,2010-10-07T18:00:00Z,28.8332,-90.8320,10.0,-9999.0,2 
WAVCIS,ioos:station:WAVCIS:CSI15:1,2010-10-07T19:00:00Z,28.8332,-90.8320,10.0,-9999.0,2 
WAVCIS,ioos:station:WAVCIS:CSI15:1,2010-10-07T20:00:00Z,28.8332,-90.8320,10.0,-9999.0,2 
WAVCIS,ioos:station:WAVCIS:CSI15:1,2010-10-07T21:00:00Z,28.8332,-90.8320,10.0,-9999.0,2 
WAVCIS,ioos:station:WAVCIS:CSI15:1,2010-10-07T22:00:00Z,28.8332,-90.8320,10.0,-9999.0,2 
WAVCIS,ioos:station:WAVCIS:CSI15:1,2010-10-07T23:00:00Z,28.8332,-90.8320,10.0,-9999.0,2 
WAVCIS,ioos:station:WAVCIS:CSI15:1,2010-10-08T00:00:00Z,28.8332,-90.8320,10.0,-9999.0,2 
WAVCIS,ioos:station:WAVCIS:CSI15:1,2010-10-08T01:00:00Z,28.8332,-90.8320,10.0,-9999.0,2 
WAVCIS,ioos:station:WAVCIS:CSI15:1,2010-10-08T02:00:00Z,28.8332,-90.8320,10.0,-9999.0,2 
WAVCIS,ioos:station:WAVCIS:CSI15:1,2010-10-08T03:00:00Z,28.8332,-90.8320,10.0,-9999.0,2 
WAVCIS,ioos:station:WAVCIS:CSI15:1,2010-10-08T04:00:00Z,28.8332,-90.8320,10.0,-9999.0,2 
WAVCIS,ioos:station:WAVCIS:CSI15:1,2010-10-08T05:00:00Z,28.8332,-90.8320,10.0,-9999.0,2 
WAVCIS,ioos:station:WAVCIS:CSI15:1,2010-10-08T06:00:00Z,28.8332,-90.8320,10.0,-9999.0,2 
WAVCIS,ioos:station:WAVCIS:CSI15:1,2010-10-08T07:00:00Z,28.8332,-90.8320,10.0,-9999.0,2 
WAVCIS,ioos:station:WAVCIS:CSI15:1,2010-10-08T08:00:00Z,28.8332,-90.8320,10.0,-9999.0,2 
WAVCIS,ioos:station:WAVCIS:CSI15:1,2010-10-08T09:00:00Z,28.8332,-90.8320,10.0,-9999.0,2 
WAVCIS,ioos:station:WAVCIS:CSI15:1,2010-10-08T10:00:00Z,28.8332,-90.8320,10.0,-9999.0,2 
WAVCIS,ioos:station:WAVCIS:CSI15:1,2010-10-08T11:00:00Z,28.8332,-90.8320,10.0,-9999.0,2 
WAVCIS,ioos:station:WAVCIS:CSI15:1,2010-10-08T12:00:00Z,28.8332,-90.8320,10.0,-9999.0,2 
WAVCIS,ioos:station:WAVCIS:CSI15:1,2010-10-08T13:00:00Z,28.8332,-90.8320,10.0,-9999.0,2 
WAVCIS,ioos:station:WAVCIS:CSI15:1,2010-10-08T14:00:00Z,28.8332,-90.8320,10.0,-9999.0,2 
WAVCIS,ioos:station:WAVCIS:CSI15:1,2010-10-08T15:00:00Z,28.8332,-90.8320,10.0,2.321,11133222 
WAVCIS,ioos:station:WAVCIS:CSI15:1,2010-10-08T16:00:00Z,28.8332,-90.8320,10.0,2.336,11133222 
WAVCIS,ioos:station:WAVCIS:CSI15:1,2010-10-08T17:00:00Z,28.8332,-90.8320,10.0,2.347,11133222 
WAVCIS,ioos:station:WAVCIS:CSI15:1,2010-10-08T18:00:00Z,28.8332,-90.8320,10.0,2.357,11133222 
WAVCIS,ioos:station:WAVCIS:CSI15:1,2010-10-08T19:00:00Z,28.8332,-90.8320,10.0,2.407,11133222 
WAVCIS,ioos:station:WAVCIS:CSI15:1,2010-10-08T20:00:00Z,28.8332,-90.8320,10.0,2.39,11133222 
WAVCIS,ioos:station:WAVCIS:CSI15:1,2010-10-08T21:00:00Z,28.8332,-90.8320,10.0,2.417,11133222 
WAVCIS,ioos:station:WAVCIS:CSI15:1,2010-10-11T18:00:00Z,28.8332,-90.8320,10.0,2.11,11133222 
WAVCIS,ioos:station:WAVCIS:CSI15:1,2010-10-11T19:00:00Z,28.8332,-90.8320,10.0,2.135,11133222 
WAVCIS,ioos:station:WAVCIS:CSI15:1,2010-10-11T20:00:00Z,28.8332,-90.8320,10.0,2.174,11133222 
WAVCIS,ioos:station:WAVCIS:CSI15:1,2010-10-11T21:00:00Z,28.8332,-90.8320,10.0,2.22,11133222 
WAVCIS,ioos:station:WAVCIS:CSI15:1,2010-10-11T22:00:00Z,28.8332,-90.8320,10.0,2.25,11133222 
WAVCIS,ioos:station:WAVCIS:CSI15:1,2010-10-11T23:00:00Z,28.8332,-90.8320,10.0,2.213,11133222 
WAVCIS,ioos:station:WAVCIS:CSI15:1,2010-10-12T00:00:00Z,28.8332,-90.8320,10.0,2.16,11133222 
WAVCIS,ioos:station:WAVCIS:CSI15:1,2010-10-12T01:00:00Z,28.8332,-90.8320,10.0,2.187,11133222 
WAVCIS,ioos:station:WAVCIS:CSI15:1,2010-10-12T02:00:00Z,28.8332,-90.8320,10.0,2.26,11133222 
WAVCIS,ioos:station:WAVCIS:CSI15:1,2010-10-12T03:00:00Z,28.8332,-90.8320,10.0,2.31,11133222 
WAVCIS,ioos:station:WAVCIS:CSI15:1,2010-10-12T04:00:00Z,28.8332,-90.8320,10.0,2.338,11133222 
WAVCIS,ioos:station:WAVCIS:CSI15:1,2010-10-12T05:00:00Z,28.8332,-90.8320,10.0,2.34,11133222 
WAVCIS,ioos:station:WAVCIS:CSI15:1,2010-10-12T06:00:00Z,28.8332,-90.8320,10.0,2.346,11133222 
WAVCIS,ioos:station:WAVCIS:CSI15:1,2010-10-12T07:00:00Z,28.8332,-90.8320,10.0,2.356,11133222 
WAVCIS,ioos:station:WAVCIS:CSI15:1,2010-10-12T08:00:00Z,28.8332,-90.8320,10.0,2.381,11133222 
WAVCIS,ioos:station:WAVCIS:CSI15:1,2010-10-12T09:00:00Z,28.8332,-90.8320,10.0,2.389,11133222 
WAVCIS,ioos:station:WAVCIS:CSI15:1,2010-10-12T10:00:00Z,28.8332,-90.8320,10.0,2.4,11133222 
WAVCIS,ioos:station:WAVCIS:CSI15:1,2010-10-12T11:00:00Z,28.8332,-90.8320,10.0,2.376,11133222 
WAVCIS,ioos:station:WAVCIS:CSI15:1,2010-10-12T12:00:00Z,28.8332,-90.8320,10.0,2.07,11133222 
WAVCIS,ioos:station:WAVCIS:CSI15:1,2010-10-12T13:00:00Z,28.8332,-90.8320,10.0,1.97,11133222 
WAVCIS,ioos:station:WAVCIS:CSI15:1,2010-10-12T14:00:00Z,28.8332,-90.8320,10.0,2.019,11133222 
WAVCIS,ioos:station:WAVCIS:CSI15:1,2010-10-12T15:00:00Z,28.8332,-90.8320,10.0,2.18,11133222 
WAVCIS,ioos:station:WAVCIS:CSI15:1,2010-10-12T16:00:00Z,28.8332,-90.8320,10.0,2.127,11133222 
WAVCIS,ioos:station:WAVCIS:CSI15:1,2010-10-12T17:00:00Z,28.8332,-90.8320,10.0,2.192,11133222 
WAVCIS,ioos:station:WAVCIS:CSI15:1,2010-10-12T18:00:00Z,28.8332,-90.8320,10.0,1.847,11133222 
WAVCIS,ioos:station:WAVCIS:CSI15:1,2010-10-12T19:00:00Z,28.8332,-90.8320,10.0,2.37,11133222 
WAVCIS,ioos:station:WAVCIS:CSI15:1,2010-10-12T20:00:00Z,28.8332,-90.8320,10.0,2.333,11133222 
WAVCIS,ioos:station:WAVCIS:CSI15:1,2010-10-12T21:00:00Z,28.8332,-90.8320,10.0,2.397,11133222 
WAVCIS,ioos:station:WAVCIS:CSI15:1,2010-10-12T22:00:00Z,28.8332,-90.8320,10.0,2.403,11133222 
WAVCIS,ioos:station:WAVCIS:CSI15:1,2010-10-12T23:00:00Z,28.8332,-90.8320,10.0,2.373,11133222 
WAVCIS,ioos:station:WAVCIS:CSI15:1,2010-10-13T00:00:00Z,28.8332,-90.8320,10.0,2.374,11133222 
WAVCIS,ioos:station:WAVCIS:CSI15:1,2010-10-13T01:00:00Z,28.8332,-90.8320,10.0,2.383,11133222 
WAVCIS,ioos:station:WAVCIS:CSI15:1,2010-10-13T02:00:00Z,28.8332,-90.8320,10.0,2.365,11133222 
WAVCIS,ioos:station:WAVCIS:CSI15:1,2010-10-13T03:00:00Z,28.8332,-90.8320,10.0,2.434,11133222 
WAVCIS,ioos:station:WAVCIS:CSI15:1,2010-10-13T04:00:00Z,28.8332,-90.8320,10.0,2.328,11133222 
WAVCIS,ioos:station:WAVCIS:CSI15:1,2010-10-13T05:00:00Z,28.8332,-90.8320,10.0,2.279,11133222 
WAVCIS,ioos:station:WAVCIS:CSI15:1,2010-10-13T06:00:00Z,28.8332,-90.8320,10.0,2.213,11133222 
WAVCIS,ioos:station:WAVCIS:CSI15:1,2010-10-13T07:00:00Z,28.8332,-90.8320,10.0,2.095,11133222 
WAVCIS,ioos:station:WAVCIS:CSI15:1,2010-10-13T08:00:00Z,28.8332,-90.8320,10.0,2.096,11133222 
WAVCIS,ioos:station:WAVCIS:CSI15:1,2010-10-13T09:00:00Z,28.8332,-90.8320,10.0,1.981,11133222 
WAVCIS,ioos:station:WAVCIS:CSI15:1,2010-10-13T10:00:00Z,28.8332,-90.8320,10.0,1.936,11133222 
WAVCIS,ioos:station:WAVCIS:CSI15:1,2010-10-13T11:00:00Z,28.8332,-90.8320,10.0,1.924,11133222 
WAVCIS,ioos:station:WAVCIS:CSI15:1,2010-10-13T12:00:00Z,28.8332,-90.8320,10.0,1.885,11133222 
WAVCIS,ioos:station:WAVCIS:CSI15:1,2010-10-13T13:00:00Z,28.8332,-90.8320,10.0,1.888,11133222 
WAVCIS,ioos:station:WAVCIS:CSI15:1,2010-10-13T14:00:00Z,28.8332,-90.8320,10.0,1.873,11133222 
WAVCIS,ioos:station:WAVCIS:CSI15:1,2010-10-13T15:00:00Z,28.8332,-90.8320,10.0,1.991,11133222 
WAVCIS,ioos:station:WAVCIS:CSI15:1,2010-10-13T16:00:00Z,28.8332,-90.8320,10.0,2.11,11133222 
WAVCIS,ioos:station:WAVCIS:CSI15:1,2010-10-13T17:00:00Z,28.8332,-90.8320,10.0,1.966,11133222 
WAVCIS,ioos:station:WAVCIS:CSI15:1,2010-10-13T18:00:00Z,28.8332,-90.8320,10.0,2.04,11133222 
WAVCIS,ioos:station:WAVCIS:CSI15:1,2010-10-13T19:00:00Z,28.8332,-90.8320,10.0,2.086,11133222 
WAVCIS,ioos:station:WAVCIS:CSI15:1,2010-10-13T20:00:00Z,28.8332,-90.8320,10.0,2.151,11133222 
WAVCIS,ioos:station:WAVCIS:CSI15:1,2010-10-13T21:00:00Z,28.8332,-90.8320,10.0,2.152,11133222 
WAVCIS,ioos:station:WAVCIS:CSI15:1,2010-10-13T22:00:00Z,28.8332,-90.8320,10.0,2.177,11133222 
WAVCIS,ioos:station:WAVCIS:CSI15:1,2010-10-13T23:00:00Z,28.8332,-90.8320,10.0,3.724,11133222 
WAVCIS,ioos:station:WAVCIS:CSI15:1,2010-10-14T00:00:00Z,28.8332,-90.8320,10.0,2.308,11133222 
WAVCIS,ioos:station:WAVCIS:CSI15:1,2010-10-14T01:00:00Z,28.8332,-90.8320,10.0,2.209,11133222 
WAVCIS,ioos:station:WAVCIS:CSI15:1,2010-10-14T02:00:00Z,28.8332,-90.8320,10.0,2.138,11133222 
WAVCIS,ioos:station:WAVCIS:CSI15:1,2010-10-14T03:00:00Z,28.8332,-90.8320,10.0,2.071,11133222 
WAVCIS,ioos:station:WAVCIS:CSI15:1,2010-10-14T04:00:00Z,28.8332,-90.8320,10.0,2.04,11133222 
WAVCIS,ioos:station:WAVCIS:CSI15:1,2010-10-14T05:00:00Z,28.8332,-90.8320,10.0,2.033,11133222 
WAVCIS,ioos:station:WAVCIS:CSI15:1,2010-10-14T06:00:00Z,28.8332,-90.8320,10.0,2.017,11133222 
WAVCIS,ioos:station:WAVCIS:CSI15:1,2010-10-14T07:00:00Z,28.8332,-90.8320,10.0,1.974,11133222 
WAVCIS,ioos:station:WAVCIS:CSI15:1,2010-10-14T08:00:00Z,28.8332,-90.8320,10.0,1.911,11133222 
WAVCIS,ioos:station:WAVCIS:CSI15:1,2010-10-14T09:00:00Z,28.8332,-90.8320,10.0,1.913,11133222 
WAVCIS,ioos:station:WAVCIS:CSI15:1,2010-10-14T10:00:00Z,28.8332,-90.8320,10.0,1.862,11133222 
WAVCIS,ioos:station:WAVCIS:CSI15:1,2010-10-14T11:00:00Z,28.8332,-90.8320,10.0,1.868,11133222 
WAVCIS,ioos:station:WAVCIS:CSI15:1,2010-10-14T12:00:00Z,28.8332,-90.8320,10.0,1.873,11133222 
WAVCIS,ioos:station:WAVCIS:CSI15:1,2010-10-14T13:00:00Z,28.8332,-90.8320,10.0,1.86,11133222 
WAVCIS,ioos:station:WAVCIS:CSI15:1,2010-10-14T14:00:00Z,28.8332,-90.8320,10.0,2.009,11133222 
WAVCIS,ioos:station:WAVCIS:CSI15:1,2010-10-14T15:00:00Z,28.8332,-90.8320,10.0,1.962,11133222 
WAVCIS,ioos:station:WAVCIS:CSI15:1,2010-10-14T16:00:00Z,28.8332,-90.8320,10.0,1.923,11133222 
WAVCIS,ioos:station:WAVCIS:CSI15:1,2010-10-14T17:00:00Z,28.8332,-90.8320,10.0,1.968,11133222 
WAVCIS,ioos:station:WAVCIS:CSI15:1,2010-10-14T18:00:00Z,28.8332,-90.8320,10.0,1.997,11133222 
WAVCIS,ioos:station:WAVCIS:CSI15:1,2010-10-14T19:00:00Z,28.8332,-90.8320,10.0,2.019,11133222 